"Pseudo-MPEC" for P10QBTF

Created 2019 Aug 15 2:07:08 UT using Find_Orb

Click here for an explanation of pseudo-MPECs

 
 Astrometry: 
     P10QBTF  C2019 08 12m[T3l/W@OxI^$GR'-([:@/bAstrometrycksaSVDFkxY^bj$khMOF51
     P10QBTF  C2019 08 12mO[N6dc*^d9FM+s58)3^ueq3MbkPsGw)L8G5v+y5,'tYp2c)J8nBF51
     P10QBTF  C2019 08 12Kv^p:hibfkEl]l'YQ[I]w=fdZo4r=0wmHm.77JW(II@;*yl?*[!GF51
     P10QBTF  C2019 08 12[p,-h=*[ewCV4G3qp\71AjX`Gv!=C?RnK_6BiK.@o/RZ3hKx/o0JF51
     P10QBTF ^C2019 08 13.39645922 26 06.680+15 15 48.81   ~8DI7 20.77GVNEOCP568
     P10QBTF ^C2019 08 13.39765722 26 06.682+15 15 49.66   ~8DI7 20.76GVNEOCP568
     P10QBTF ^C2019 08 13.39887122 26 06.686+15 15 50.50   ~8DI7 20.71GVNEOCP568
     P10QBTF pC2019 08 14LF=Ci\u7.4'*#Slx1-r=A__l^IaHs$u?AbXn@([J`4=^jNEcEfH*L01
     P10QBTF KC2019 08 14X`S?/Lwredacted;*ks.QJbqSCum28Qclick@Pe?hJNNWG]^EA)xL01
     P10QBTF pC2019 08 157IHytUCoHUbS1\)herewEeMm7u+u@L%8$;'5\9^_H8Y]B09AOsICL01
     P10QBTF KC2019 08 150DN,T103'K:w:Pjx5for8y(L6$\OyfHH/Xl7explanationdEOt2L01

Station data:
(568) Mauna Kea  (N19.826116 W155.472200)  US/Hawaii.
(F51) Pan-STARRS 1, Haleakala  (N20.707235 W156.255910)  US/Hawaii.
   Observers N. Primak, A. Schultz, S. Watters, J. Thiel, T. Goggia. Measurer
   PS1 Science Consortium. 1.8-m Ritchey-Chrétien + CCD.
(L01) Višnjan Observatory, Tičan  (N45.290900 E13.749300)  Croatia.
   Observers K. Korlević, E. Pettarin. Measurer E. Pettarin. 1.0-m f/2.9
   reflector + CCD.

Orbital elements:  P10QBTF
   Perihelion 2019 Sep 24.954223 +/- 4.69 TT = 22:54:04 (JD 2458751.454223)
Epoch 2019 Aug 15.0 TT = JDT 2458710.5   Earth MOID: 0.4381   AutoNEOCP
M 348.74700592 +/- 1.6              (J2000 ecliptic)
n   0.27477005 +/- 0.012            Peri.  117.33752 +/- 5.5
a   2.34327423 +/- 0.0682           Node   239.06429 +/- 2.1
e   0.3949898 +/- 0.0106            Incl.    7.89976 +/- 0.11
P   3.59                   H 20.8   G  0.15   U  9.8  
q 1.41770469 +/- 0.0182    Q 3.26884377 +/- 0.123
From 11 observations 2019 Aug. 12-15; mean residual 0".28
Residuals in arcseconds: 
190812 F51  .08-  .09+    190813 568  .03-  .01-    190814 L01  .43-  .03-    
190812 F51  .04-  .01+    190813 568  .01-  .01+    190815 L01  .44+  .63-    
190812 F51  .03-  .05-    190813 568  .03+  .01+    190815 L01  .56-  .40+    
190812 F51  .16+  .05-    190814 L01  .57+  .25+    

Ephemerides (geocentric):
Date (UTC) HH   RA              Dec         delta   r     elong  mag " sig PA
---- -- -- --  -------------   -----------  ------ ------ -----  --- ---- ---
2019 08 15 02  22 26 16.280   +15 34 20.60  .50491 1.4648 147.7 21.2 .230 160
2019 08 15 03  22 26 16.491   +15 34 47.00  .50474 1.4647 147.7 21.2 .244 160
2019 08 15 04  22 26 16.701   +15 35 13.35  .50458 1.4646 147.8 21.2 .258 159
2019 08 15 05  22 26 16.909   +15 35 39.65  .50442 1.4645 147.8 21.2 .273 158
2019 08 15 06  22 26 17.115   +15 36 05.90  .50426 1.4644 147.8 21.2 .288 158
2019 08 15 07  22 26 17.319   +15 36 32.09  .50410 1.4643 147.8 21.2 .303 157
2019 08 15 08  22 26 17.522   +15 36 58.24  .50394 1.4643 147.8 21.2 .319 156
2019 08 15 09  22 26 17.723   +15 37 24.34  .50378 1.4642 147.9 21.2 .335 156
2019 08 15 10  22 26 17.922   +15 37 50.39  .50363 1.4641 147.9 21.2 .351 155
2019 08 15 11  22 26 18.119   +15 38 16.38  .50347 1.4640 147.9 21.2 .368 155
2019 08 15 12  22 26 18.314   +15 38 42.33  .50331 1.4639 147.9 21.2 .385 155
2019 08 15 13  22 26 18.508   +15 39 08.23  .50315 1.4638 147.9 21.2 .402 154
2019 08 15 14  22 26 18.699   +15 39 34.07  .50299 1.4637 147.9 21.2 .420 154
2019 08 15 15  22 26 18.889   +15 39 59.87  .50283 1.4636 148.0 21.2 .438 154
2019 08 15 16  22 26 19.078   +15 40 25.61  .50267 1.4635 148.0 21.2 .456 153
2019 08 15 17  22 26 19.264   +15 40 51.30  .50252 1.4634 148.0 21.2 .475 153
2019 08 15 18  22 26 19.449   +15 41 16.95  .50236 1.4633 148.0 21.2 .494 153
2019 08 15 19  22 26 19.632   +15 41 42.54  .50220 1.4632 148.0 21.2 .513 152
2019 08 15 20  22 26 19.813   +15 42 08.08  .50205 1.4631 148.1 21.2 .533 152
2019 08 15 21  22 26 19.992   +15 42 33.57  .50189 1.4631 148.1 21.2 .553 152
2019 08 15 22  22 26 20.170   +15 42 59.01  .50173 1.4630 148.1 21.2 .573 152
2019 08 15 23  22 26 20.346   +15 43 24.40  .50157 1.4629 148.1 21.2 .594 151
2019 08 16 00  22 26 20.520   +15 43 49.73  .50142 1.4628 148.1 21.2 .615 151
2019 08 16 01  22 26 20.693   +15 44 15.02  .50126 1.4627 148.2 21.2 .636 151
2019 08 16 02  22 26 20.864   +15 44 40.25  .50111 1.4626 148.2 21.1 .658 151
2019 08 16 03  22 26 21.033   +15 45 05.44  .50095 1.4625 148.2 21.1 .680 151
2019 08 16 04  22 26 21.200   +15 45 30.57  .50080 1.4624 148.2 21.1 .702 150
2019 08 16 05  22 26 21.365   +15 45 55.65  .50064 1.4623 148.2 21.1 .724 150
2019 08 16 06  22 26 21.529   +15 46 20.68  .50049 1.4622 148.3 21.1 .747 150
2019 08 16 07  22 26 21.691   +15 46 45.66  .50033 1.4621 148.3 21.1 .770 150
2019 08 16 08  22 26 21.852   +15 47 10.58  .50018 1.4621 148.3 21.1 .794 150
2019 08 16 09  22 26 22.010   +15 47 35.46  .50002 1.4620 148.3 21.1 .817 150
2019 08 16 10  22 26 22.167   +15 48 00.28  .49987 1.4619 148.3 21.1 .841 150
2019 08 16 11  22 26 22.323   +15 48 25.05  .49971 1.4618 148.4 21.1 .866 149
2019 08 16 12  22 26 22.476   +15 48 49.77  .49956 1.4617 148.4 21.1 .890 149
2019 08 16 13  22 26 22.628   +15 49 14.44  .49941 1.4616 148.4 21.1 .915 149
2019 08 16 14  22 26 22.778   +15 49 39.05  .49925 1.4615 148.4 21.1 .940 149
2019 08 16 15  22 26 22.927   +15 50 03.61  .49910 1.4614 148.4 21.1 .966 149
2019 08 16 16  22 26 23.074   +15 50 28.13  .49895 1.4613 148.4 21.1 0.99 149
2019 08 16 17  22 26 23.219   +15 50 52.59  .49879 1.4612 148.5 21.1 1.02 149
2019 08 16 18  22 26 23.362   +15 51 16.99  .49864 1.4612 148.5 21.1 1.04 148
2019 08 16 19  22 26 23.504   +15 51 41.35  .49849 1.4611 148.5 21.1 1.07 148
2019 08 16 20  22 26 23.644   +15 52 05.65  .49834 1.4610 148.5 21.1 1.10 148
2019 08 16 21  22 26 23.782   +15 52 29.90  .49818 1.4609 148.5 21.1 1.12 148
2019 08 16 22  22 26 23.919   +15 52 54.10  .49803 1.4608 148.6 21.1 1.15 148
2019 08 16 23  22 26 24.054   +15 53 18.24  .49788 1.4607 148.6 21.1 1.18 148
2019 08 17 00  22 26 24.188   +15 53 42.34  .49773 1.4606 148.6 21.1 1.21 148
2019 08 17 01  22 26 24.319   +15 54 06.38  .49758 1.4605 148.6 21.1 1.24 148